FW0879 Weather Reports


time (UTC)temp
C
wind
direction
speed
KPH
gust
KPH
rain 1hr
cm
rain 24hr
cm
rain mn
cm
humidity
%
barometer
mb
20260510161903 23 151 16.1 38.6 0.00 0.00 0.00 53 1007.9
20260510161404 23 204 14.5 32.2 0.00 0.00 0.00 53 1008.0
20260510160903 23 230 22.5 37.0 0.00 0.00 0.00 52 1008.1
20260510160403 23 190 16.1 32.2 0.00 0.00 0.00 52 1008.1
20260510155404 23 208 24.1 40.2 0.00 0.00 0.00 52 1008.1
20260510154903 23 209 19.3 38.6 0.00 0.00 0.00 52 1008.4
20260510154403 23 187 20.9 37.0 0.00 0.00 0.00 53 1008.1
20260510153903 23 155 22.5 40.2 0.00 0.00 0.00 54 1008.2
20260510153404 23 166 33.8 48.3 0.00 0.00 0.00 54 1008.1
20260510152903 23 216 20.9 53.1 0.00 0.00 0.00 53 1008.3
20260510152404 23 158 14.5 38.6 0.00 0.00 0.00 52 1008.2
20260510151903 23 186 35.4 51.5 0.00 0.00 0.00 53 1008.2
20260510151403 23 192 20.9 41.8 0.00 0.00 0.00 53 1008.3
20260510150904 23 205 25.7 40.2 0.00 0.00 0.00 53 1008.4
20260510150418 23 168 19.3 41.8 0.00 0.00 0.00 54 1008.6
20260510145904 23 163 27.4 49.9 0.00 0.00 0.00 54 1008.6
20260510144904 23 189 20.9 37.0 0.00 0.00 0.00 55 1008.6
20260510144404 23 146 11.3 27.4 0.00 0.00 0.00 56 1008.7
20260510143903 23 160 9.7 19.3 0.00 0.00 0.00 55 1008.9
20260510142404 23 163 19.3 33.8 0.00 0.00 0.00 53 1009.1
20260510141404 23 139 14.5 29.0 0.00 0.00 0.00 53 1009.2
20260510140903 23 124 11.3 22.5 0.00 0.00 0.00 53 1009.1
20260510140403 23 162 17.7 35.4 0.00 0.00 0.00 53 1009.2
20260510135903 23 78 16.1 27.4 0.00 0.00 0.00 53 1009.2
20260510135403 23 60 12.9 25.7 0.00 0.00 0.00 53 1009.1
20260510134903 23 137 8.0 32.2 0.00 0.00 0.00 53 1009.3
20260510134404 23 120 16.1 33.8 0.00 0.00 0.00 53 1009.6
20260510132904 22 154 17.7 37.0 0.00 0.00 0.00 54 1009.9
20260510130903 23 112 19.3 29.0 0.00 0.08 0.00 49 1009.9
20260510130403 23 127 14.5 27.4 0.00 0.08 0.00 49 1010.1
20260510125404 23 172 14.5 33.8 0.00 0.08 0.00 52 1010.1
20260510124904 23 150 20.9 32.2 0.00 0.08 0.00 54 1010.2
20260510124404 22 218 8.0 32.2 0.00 0.08 0.00 56 1010.2
20260510123904 23 111 20.9 45.1 0.00 0.08 0.00 55 1010.2
20260510122904 23 150 20.9 32.2 0.00 0.10 0.00 50 1010.3
20260510121904 23 120 12.9 32.2 0.00 0.10 0.00 46 1010.1
20260510121404 23 140 20.9 38.6 0.00 0.13 0.00 48 1010.2
20260510120904 23 145 25.7 41.8 0.00 0.13 0.00 48 1010.2
20260510120404 23 123 19.3 32.2 0.00 0.15 0.00 53 1010.1
20260510115904 23 136 25.7 37.0 0.00 0.20 0.00 52 1010.4
20260510115403 23 128 22.5 40.2 0.00 0.25 0.00 51 1010.3
20260510114903 23 119 19.3 33.8 0.00 0.30 0.00 49 1010.5
20260510113404 24 112 19.3 32.2 0.00 0.46 0.00 48 1010.7
20260510112904 23 154 14.5 22.5 0.00 0.53 0.00 46 1010.8
20260510112402 23 127 19.3 29.0 0.00 0.64 0.00 48 1010.8
20260510111902 23 157 14.5 29.0 0.00 0.71 0.00 48 1010.9
20260510111402 22 134 19.3 27.4 0.00 0.74 0.00 52 1011.0
20260510110902 21 107 11.3 27.4 0.00 0.76 0.00 63 1011.2
20260510105902 20 71 16.1 24.1 0.00 1.02 0.00 73 1011.5
20260510105403 20 75 16.1 22.5 0.00 1.14 0.00 74 1011.6
20260510104903 20 72 11.3 27.4 0.00 1.17 0.00 74 1011.7
20260510104403 20 74 16.1 22.5 0.00 1.17 0.00 73 1011.8
20260510103902 20 74 16.1 29.0 0.00 1.24 0.00 74 1011.9
20260510103402 20 58 9.7 20.9 0.00 1.27 0.00 74 1012.0
20260510102902 20 76 12.9 19.3 0.00 1.27 0.00 73 1012.1
20260510100902 20 71 11.3 19.3 0.00 1.30 0.00 68 1012.2
20260510100402 20 70 14.5 19.3 0.00 1.30 0.00 68 1012.2
20260510095903 20 81 11.3 19.3 0.00 1.30 0.00 68 1012.2
20260510095403 20 91 9.7 14.5 0.00 1.30 0.00 68 1012.2
20260510094903 21 82 9.7 19.3 0.00 1.30 0.00 65 1012.1
20260510094402 21 59 6.4 11.3 0.00 1.30 0.00 65 1012.2
20260510093903 20 93 4.8 12.9 0.00 1.32 0.00 65 1012.3
20260510093402 20 72 6.4 9.7 0.00 1.32 0.00 64 1012.3
20260510092902 21 88 8.0 9.7 0.00 1.32 0.00 63 1012.3
20260510092402 21 78 4.8 9.7 0.00 1.40 0.00 63 1012.3
20260510091902 21 72 4.8 9.7 0.00 1.40 0.00 62 1012.2
20260510091402 21 59 4.8 9.7 0.00 1.40 0.00 64 1012.2
20260510090902 21 78 3.2 8.0 0.00 1.42 0.00 64 1012.3
20260510090402 21 18 4.8 4.8 0.00 1.57 0.00 63 1012.3
20260510085902 21 0 4.8 8.0 0.00 1.80 0.00 62 1012.2
20260510084902 20 16 3.2 11.3 0.00 2.08 0.00 67 1012.3
20260510084402 20 31 4.8 8.0 0.00 2.26 0.00 67 1012.2
20260510083902 20 356 3.2 8.0 0.00 2.36 0.00 67 1012.2
20260510083402 20 34 3.2 4.8 0.00 2.39 0.00 69 1012.4
20260510082902 20 59 3.2 8.0 0.00 2.39 0.00 69 1012.3
20260510082403 20 22 3.2 4.8 0.00 2.39 0.00 70 1012.2
20260510081902 20 69 4.8 9.7 0.00 2.39 0.00 70 1012.2
20260510081402 20 64 3.2 8.0 0.00 2.39 0.00 70 1012.1
20260510080902 20 61 3.2 8.0 0.00 2.39 0.00 70 1012.1
20260510080402 20 24 3.2 4.8 0.00 2.39 0.00 68 1012.4
20260510075902 20 44 3.2 4.8 0.00 2.39 0.00 68 1012.4
20260510075402 20 51 3.2 4.8 0.00 2.39 0.00 68 1012.6
20260510074402 20 34 3.2 4.8 0.00 2.39 0.00 68 1012.7
20260510073902 20 58 1.6 4.8 0.00 2.39 0.00 69 1012.6
20260510073402 20 92 1.6 4.8 0.00 2.39 0.00 70 1012.6
20260510072903 20 120 1.6 3.2 0.00 2.39 0.00 70 1012.8
20260510071902 20 120 1.6 3.2 0.00 2.44 0.00 69 1012.7
20260510071403 20 120 0.0 1.6 0.00 2.44 0.00 71 1012.7
20260510070903 20 120 1.6 3.2 0.00 2.44 0.00 72 1012.5
20260510070402 19 120 1.6 3.2 0.00 2.44 0.00 75 1012.4
20260510065902 18 120 0.0 3.2 0.00 2.44 0.00 76 1012.3
20260510065403 18 132 1.6 4.8 0.00 2.44 0.00 77 1012.3
20260510064902 18 140 0.0 1.6 0.00 2.46 0.00 77 1012.2
20260510064402 18 140 1.6 4.8 0.00 2.46 0.00 79 1012.1
20260510063903 17 140 1.6 4.8 0.00 2.49 0.00 80 1012.1
20260510063402 17 140 1.6 3.2 0.00 2.54 0.00 80 1012.0
20260510062902 17 140 0.0 3.2 0.00 2.67 0.00 82 1012.0
20260510062402 17 140 4.8 8.0 0.00 2.79 0.00 82 1012.0
20260510061902 16 136 4.8 4.8 0.00 2.87 0.00 82 1012.0
20260510061402 17 115 0.0 0.0 0.00 2.87 0.00 80 1012.0
20260510060903 17 115 3.2 8.0 0.00 2.87 0.00 80 1011.9
20260510060403 17 104 3.2 4.8 0.00 2.87 0.00 77 1011.9
20260510055902 16 177 0.0 3.2 0.00 2.87 0.00 79 1011.9
20260510055403 16 177 0.0 1.6 0.00 2.87 0.00 80 1011.9
20260510054902 16 177 0.0 0.0 0.00 2.87 0.00 80 1011.9
20260510054402 16 177 1.6 8.0 0.00 2.87 0.00 81 1011.9
20260510053902 16 201 4.8 4.8 0.00 2.87 0.00 79 1011.9
20260510052903 16 144 0.0 3.2 0.00 2.87 0.00 80 1011.8
20260510052402 16 144 0.0 1.6 0.00 2.87 0.00 79 1011.8
20260510051902 16 144 0.0 4.8 0.00 2.87 0.00 80 1011.8
20260510051402 16 66 0.0 3.2 0.00 2.87 0.00 78 1011.7
20260510045902 15 174 0.0 1.6 0.00 2.87 0.00 82 1011.6
20260510045403 15 174 0.0 3.2 0.00 2.87 0.00 83 1011.5
20260510044902 15 174 4.8 4.8 0.00 2.87 0.00 83 1011.5
20260510044402 15 182 4.8 8.0 0.00 2.87 0.00 81 1011.5
20260510043903 15 3 3.2 4.8 0.00 2.87 0.00 81 1011.4
20260510043402 15 24 1.6 4.8 0.00 2.87 0.00 82 1011.4
20260510042903 15 276 0.0 0.0 0.00 2.87 0.00 81 1011.4
20260510042402 15 276 0.0 3.2 0.00 2.87 0.00 81 1011.3
20260510041902 15 276 1.6 4.8 0.00 2.87 0.00 81 1011.4
20260510041402 15 276 3.2 4.8 0.00 2.87 0.00 82 1011.3
20260510040402 15 251 3.2 4.8 0.00 2.87 0.00 83 1011.3
20260510035402 15 235 3.2 4.8 0.00 2.87 0.00 83 1011.3
20260510034903 15 236 1.6 4.8 0.00 2.87 0.00 84 1011.4
20260510033903 15 211 0.0 0.0 0.00 2.87 0.00 84 1011.3
20260510033402 15 211 0.0 0.0 0.00 2.87 0.00 84 1011.3
20260510032903 15 211 0.0 0.0 0.00 2.87 0.00 84 1011.3
20260510031903 14 286 0.0 1.6 0.00 2.87 0.00 86 1011.2
20260510030902 14 286 0.0 0.0 0.00 2.87 0.00 85 1011.3
20260510030403 15 286 0.0 0.0 0.00 2.87 0.00 84 1011.3
20260510025903 14 286 0.0 0.0 0.00 2.87 0.00 84 1011.3
20260510025402 14 286 0.0 0.0 0.00 2.87 0.00 84 1011.3
20260510024403 15 286 0.0 0.0 0.00 2.87 0.00 84 1011.3
20260510023902 15 286 0.0 0.0 0.00 2.87 0.00 83 1011.4
20260510022402 15 286 0.0 1.6 0.00 2.87 0.00 83 1011.3
20260510021903 15 283 1.6 4.8 0.00 2.87 0.00 83 1011.4
20260510020902 15 238 3.2 4.8 0.00 2.87 0.00 83 1011.4
20260510020403 15 231 3.2 4.8 0.00 2.87 0.00 84 1011.3
20260510015902 15 219 1.6 4.8 0.00 2.87 0.00 84 1011.2
20260510015402 15 219 0.0 0.0 0.00 2.87 0.00 85 1011.3
20260510014903 15 219 0.0 0.0 0.00 2.87 0.00 85 1011.3
20260510014403 15 219 0.0 0.0 0.00 2.87 0.00 85 1011.4
20260510013902 15 219 0.0 0.0 0.00 2.87 0.00 85 1011.4
20260510013403 15 219 0.0 0.0 0.00 2.87 0.00 85 1011.4
20260510012902 15 219 0.0 0.0 0.00 2.87 0.00 85 1011.4
20260510012403 15 219 0.0 0.0 0.00 2.87 0.00 86 1011.4
20260510011902 15 219 0.0 0.0 0.00 2.87 0.00 85 1011.5
20260510011402 15 219 0.0 0.0 0.00 2.87 0.00 85 1011.5
20260510010902 15 219 0.0 0.0 0.00 2.87 0.00 85 1011.4
20260510010402 15 219 0.0 0.0 0.00 2.87 0.00 86 1011.5
20260510005902 15 219 0.0 0.0 0.00 2.87 0.00 85 1011.5
20260510005403 15 219 0.0 0.0 0.00 2.87 0.00 84 1011.6
20260510004903 15 219 0.0 0.0 0.00 2.87 0.00 85 1011.6
20260510004403 16 219 0.0 1.6 0.00 2.87 0.00 84 1011.6
20260510003902 16 219 0.0 0.0 0.00 2.87 0.00 84 1011.7
20260510003403 16 219 0.0 1.6 0.00 2.87 0.00 84 1011.8
20260510002902 16 219 1.6 3.2 0.00 2.87 0.00 84 1011.9
20260510001903 16 219 0.0 0.0 0.00 2.87 0.00 84 1012.0
20260510000403 16 207 1.6 4.8 0.00 2.87 0.00 84 1012.2
20260509235902 15 184 3.2 4.8 0.00 2.87 0.00 85 1012.3
20260509235402 15 236 0.0 3.2 0.00 2.87 0.00 85 1012.2
20260509234902 15 236 1.6 4.8 0.00 2.87 0.00 85 1012.2
20260509234403 15 231 3.2 4.8 0.00 2.87 0.00 85 1012.2
20260509233903 15 282 3.2 4.8 0.00 2.87 0.00 85 1012.3
20260509233403 16 313 3.2 4.8 0.00 2.87 0.00 85 1012.3
20260509232902 16 276 3.2 4.8 0.00 2.87 0.00 85 1012.3
20260509232402 16 263 0.0 3.2 0.00 2.87 0.00 85 1012.2
20260509231903 16 263 1.6 3.2 0.00 2.87 0.00 85 1012.2
20260509231403 16 249 3.2 4.8 0.00 2.87 0.00 84 1012.2
20260509230903 16 261 3.2 4.8 0.00 2.87 0.00 84 1012.2
20260509225903 16 321 1.6 4.8 0.00 2.87 0.00 84 1012.2
20260509225402 16 24 1.6 3.2 0.00 2.87 0.00 84 1012.3
20260509224903 16 347 3.2 4.8 0.00 2.87 0.00 84 1012.2
20260509224403 16 217 3.2 4.8 0.00 2.87 0.00 84 1012.2
20260509223902 16 240 1.6 3.2 0.00 2.87 0.00 84 1012.2
20260509223402 16 240 0.0 1.6 0.00 2.87 0.00 84 1012.1
20260509222902 16 240 0.0 3.2 0.00 2.87 0.00 84 1012.1
20260509222403 16 132 0.0 0.0 0.00 2.87 0.00 83 1012.0
20260509221902 16 132 0.0 1.6 0.00 2.87 0.00 84 1012.1
20260509221402 16 254 3.2 4.8 0.00 2.87 0.00 83 1012.1
20260509220402 16 246 3.2 8.0 0.00 2.87 0.00 84 1012.3
20260509215903 15 245 4.8 8.0 0.00 2.87 2.87 84 1012.4
20260509214902 16 262 4.8 8.0 0.00 2.87 2.87 83 1012.4
20260509214402 16 255 1.6 4.8 0.00 2.87 2.87 82 1012.4
20260509213402 16 239 6.4 9.7 0.00 2.87 2.87 80 1012.4
20260509212402 17 250 8.0 11.3 0.00 2.87 2.87 79 1012.4
20260509211902 17 271 4.8 11.3 0.00 2.87 2.87 79 1012.4
20260509211402 17 293 4.8 9.7 0.00 2.87 2.87 80 1012.3
20260509210403 16 327 8.0 11.3 0.00 2.87 2.87 82 1012.2
20260509205902 16 335 6.4 8.0 0.00 2.87 2.87 83 1012.1
20260509205402 16 331 4.8 4.8 0.00 2.87 2.87 84 1012.0
20260509204903 16 261 3.2 4.8 0.00 2.87 2.87 84 1011.9
20260509203902 17 6 1.6 4.8 0.00 2.87 2.87 83 1011.9
20260509203403 17 311 3.2 4.8 0.00 2.87 2.87 83 1011.9
20260509202903 17 287 3.2 4.8 0.00 2.87 2.87 83 1011.8
20260509202403 17 255 4.8 8.0 0.00 2.87 2.87 83 1011.8
20260509201903 17 323 3.2 4.8 0.00 2.87 2.87 81 1011.8
20260509201403 17 284 3.2 4.8 0.00 2.87 2.87 82 1011.8
20260509200903 17 228 1.6 4.8 0.00 2.87 2.87 81 1011.7
20260509195402 17 49 6.4 9.7 0.00 2.87 2.87 81 1011.3
20260509194902 17 34 3.2 4.8 0.00 2.87 2.87 82 1011.2
20260509193902 17 71 1.6 3.2 0.00 2.87 2.87 82 1011.0
20260509192903 17 129 3.2 8.0 0.00 2.87 2.87 82 1010.8
20260509192403 17 150 6.4 8.0 0.00 2.87 2.87 81 1010.9
20260509191902 17 150 3.2 4.8 0.00 2.87 2.87 82 1010.9
20260509191403 17 150 3.2 4.8 0.00 2.87 2.87 80 1010.9
20260509190903 17 123 1.6 3.2 0.00 2.87 2.87 80 1010.8
20260509190403 17 123 1.6 3.2 0.00 2.87 2.87 80 1010.7
20260509185903 17 123 3.2 4.8 0.00 2.87 2.87 80 1010.7
20260509185403 17 122 1.6 4.8 0.00 2.87 2.87 80 1010.6
20260509184903 17 61 0.0 4.8 0.00 2.87 2.87 80 1010.6
20260509184403 17 40 1.6 3.2 0.00 2.87 2.87 79 1010.5
20260509182903 18 44 1.6 3.2 0.00 2.87 2.87 78 1010.3
20260509182402 18 111 1.6 3.2 0.00 2.87 2.87 78 1010.3
20260509180902 18 355 1.6 4.8 0.00 2.87 2.87 78 1010.2
20260509180403 18 14 4.8 4.8 0.00 2.87 2.87 76 1010.2
20260509175903 18 40 3.2 4.8 0.00 2.87 2.87 76 1010.2
20260509174903 18 338 4.8 9.7 0.00 2.87 2.87 75 1010.1
20260509174402 18 48 1.6 9.7 0.00 2.87 2.87 76 1010.1
20260509173902 18 351 8.0 14.5 0.00 2.87 2.87 76 1010.0
20260509173403 18 21 4.8 12.9 0.00 2.87 2.87 77 1010.0
20260509172403 18 18 8.0 11.3 0.00 2.87 2.87 76 1010.1
20260509171903 18 358 3.2 9.7 0.00 2.87 2.87 78 1010.0
20260509170902 18 322 12.9 16.1 0.00 2.87 2.87 77 1010.0
20260509170402 18 346 11.3 16.1 0.00 2.87 2.87 76 1009.9
20260509165403 18 335 8.0 16.1 0.00 2.87 2.87 77 1009.8
20260509164902 18 351 9.7 16.1 0.00 2.87 2.87 76 1009.7
20260509164402 18 353 11.3 19.3 0.00 2.87 2.87 77 1009.7
20260509163902 18 351 9.7 19.3 0.00 2.87 2.87 77 1009.7
20260509163402 18 343 12.9 19.3 0.00 2.87 2.87 77 1009.7
20260509162902 18 2 9.7 22.5 0.00 2.87 2.87 78 1009.7